Wind_Speed
9 14 24 25 27 24 22 21 19 20 21 21 20 19 17 16 16 16 15 13 12 10 11 11 11 10 11 12 13 15 16 16
6 15 29 33 34 31 29 22 18 13 14 20 23 22 23 23 21 19 18 17 15 13 11 10 11 11 14 15 15 16 17 18
9 24 27 34 41 38 34 30 25 16 13 22 24 26 27 25 22 20 18 16 17 15 12 15 15 13 15 17 17 17 18 20
16 22 25 28 36 44 43 30 20 21 29 23 26 24 23 23 17 21 20 16 16 16 13 16 18 15 14 17 16 18 20 19
13 26 32 41 40 46 37 31 36 33 35 35 27 24 23 22 21 20 17 17 15 15 12 14 15 11 11 10 9 2 4 3
12 30 35 35 40 41 43 38 40 39 35 28 19 19 25 26 24 19 20 21 18 16 16 13 12 12 9 8 9 7 8 6
10 32 38 41 46 42 46 40 42 42 30 23 20 18 24 28 21 13 16 24 22 18 19 18 15 8 12 13 11 9 4 5
18 29 37 43 44 40 43 40 36 37 32 24 25 16 14 14 12 9 12 12 12 14 17 17 14 10 8 8 9 6 7 7
20 31 35 30 25 29 33 31 31 34 27 27 20 18 15 12 8 5 6 5 5 8 13 13 10 10 12 9 6 9 11 14
9 21 23 26 29 30 28 28 30 28 25 26 17 15 12 9 4 4 4 3 5 7 8 8 10 13 11 11 12 12 11 11
14 17 22 28 29 31 29 28 28 25 20 16 12 14 12 9 10 8 4 3 3 5 6 6 8 13 18 18 15 16 16 12
15 15 20 21 21 28 25 24 20 14 17 21 19 15 18 16 17 15 12 9 11 9 4 1 4 8 12 14 13 15 15 16
16 16 23 25 28 29 27 25 21 18 19 18 19 22 21 18 20 23 20 17 15 13 11 9 8 5 1 4 8 12 14 20
16 20 23 24 29 27 27 29 26 25 24 22 23 24 20 20 17 18 16 13 10 8 7 6 4 3 3 5 8 9 12 15
16 15 15 20 26 27 27 28 26 24 24 21 19 19 17 16 12 11 13 13 11 9 6 6 7 8 9 11 13 15 16 16
13 12 17 20 24 25 24 24 24 21 22 21 18 14 13 11 10 9 9 9 8 7 8 8 8 9 10 11 12 13 14 15
17 15 19 22 25 24 23 20 20 19 19 16 15 13 11 11 9 7 8 7 8 8 9 9 8 9 10 13 15 17 19 21
18 16 23 24 27 23 19 16 16 16 14 12 12 11 9 8 7 7 6 5 5 8 10 11 12 12 11 12 16 17 19 22
16 15 22 25 23 23 20 18 16 14 11 9 9 10 8 8 7 5 5 4 6 9 12 14 14 14 14 16 19 20 22 23
16 17 23 21 23 26 26 23 20 16 13 8 7 6 4 4 4 4 4 5 6 10 12 14 16 16 17 19 21 21 23 26
Wind_Direction
153 135 169 136 141 148 160 160 169 170 176 175 177 184 189 199 208 210 213 215 215 221 227 227 230 236 244 247 248 247 253 255
211 112 133 136 146 151 151 164 156 173 186 181 184 191 199 202 209 214 215 217 218 214 216 222 231 237 249 254 259 264 269 271
99 120 130 141 147 155 157 164 161 152 223 205 203 204 204 205 206 213 215 218 220 211 225 235 235 245 257 262 267 271 271 276
120 128 141 147 156 158 161 169 188 183 205 214 215 212 212 213 208 217 215 218 217 212 232 238 235 244 258 266 277 283 287 297
160 153 158 160 167 164 173 177 180 195 201 216 201 219 216 210 204 209 212 216 218 220 241 236 234 231 234 233 236 285 257 66
183 157 160 166 171 173 170 180 190 199 212 212 210 215 223 219 211 216 220 220 218 221 226 222 219 225 219 225 226 241 274 290
161 160 162 170 172 177 178 186 196 204 199 193 194 209 208 214 203 200 208 222 219 226 235 234 242 247 262 253 240 229 244 302
161 163 167 174 181 186 186 189 200 195 187 200 201 215 224 204 209 225 211 189 209 237 256 256 250 275 277 234 232 256 257 257
152 163 175 172 174 182 185 183 185 188 195 208 209 221 219 214 186 174 187 206 224 254 261 269 262 263 244 245 220 214 234 249
119 159 153 156 163 177 182 188 188 196 197 195 202 201 212 220 217 196 176 243 274 266 253 253 247 236 241 239 249 248 254 222
114 119 125 147 157 165 173 177 175 181 187 199 207 191 177 140 125 131 138 118 220 263 285 277 255 248 256 253 260 256 268 272
109 109 106 118 129 149 147 147 160 170 187 191 173 153 124 109 104 101 115 99 89 91 94 114 242 255 266 254 263 262 268 266
112 104 104 104 114 120 115 110 118 125 136 159 151 118 114 116 114 105 98 96 98 97 98 107 117 119 34 293 271 263 275 273
103 103 106 107 114 112 112 111 103 112 117 118 122 122 121 116 113 105 102 97 98 93 88 82 68 40 338 315 305 300 304 300
118 118 114 111 109 109 106 106 103 103 106 107 108 108 109 104 101 99 103 104 94 73 45 15 351 333 324 313 307 304 306 305
121 117 113 113 112 112 111 107 105 105 107 104 104 107 105 100 96 96 90 85 70 37 26 17 357 339 326 319 317 311 306 303
123 117 112 113 115 113 108 106 104 106 106 102 103 107 107 105 99 87 72 53 42 24 10 3 349 331 320 314 309 303 300 298
122 119 114 111 113 111 109 109 109 107 103 99 106 109 107 99 95 82 64 53 38 11 356 343 336 327 322 318 318 307 301 301
130 124 110 113 114 106 103 101 97 93 96 104 115 119 114 108 93 58 32 11 355 350 352 343 336 328 319 303 305 300 289 287
140 113 111 109 103 94 89 82 75 66 67 83 104 109 97 77 32 23 355 340 337 331 337 333 330 323 315 307 306 303 293 292
Height
728 736 738 744 751 756 763 769 772 768 769 773 778 780 784 788 791 792 793 795 797 800 802 803 804 806 808 808 809 810 813 814
727 731 737 742 748 754 758 769 769 770 772 772 772 776 778 779 784 789 790 792 794 797 798 801 803 803 805 807 809 811 813 813
731 734 737 740 743 750 760 767 769 760 773 773 774 772 773 775 779 785 788 789 793 796 797 797 798 800 802 804 807 809 809 811
732 736 740 742 743 744 752 759 761 760 767 773 772 774 778 780 778 784 786 788 792 795 796 795 796 797 799 802 805 807 808 810
725 731 735 735 742 741 747 749 751 753 755 759 763 774 774 775 776 781 784 788 792 793 794 793 795 795 797 798 800 801 804 802
719 725 730 736 740 744 743 745 746 751 755 764 769 770 772 774 777 778 779 785 789 790 791 791 790 793 795 797 798 797 802 798
716 720 725 732 735 742 741 743 745 750 759 765 767 771 772 774 776 776 777 782 786 788 789 790 790 791 792 794 793 792 796 795
711 718 723 728 733 740 740 742 747 752 759 764 768 770 771 772 775 779 780 782 785 787 786 789 787 788 790 792 791 792 793 794
707 714 721 729 737 741 741 743 746 752 757 762 766 767 768 772 776 778 781 782 783 784 784 785 785 788 790 790 790 791 791 789
708 716 723 728 732 738 741 742 747 753 757 761 763 765 769 770 773 776 779 779 781 782 784 784 784 787 787 788 789 789 787 787
711 716 721 726 731 737 741 743 746 750 754 757 761 764 769 772 775 778 777 779 780 780 781 781 782 784 787 787 788 787 786 784
714 720 724 727 729 734 739 742 748 750 755 758 762 764 769 775 777 777 778 778 777 779 780 780 782 785 786 786 786 785 785 782
718 722 727 730 735 737 741 745 749 752 757 759 761 767 771 775 779 778 779 780 780 782 783 783 784 785 785 786 787 786 784 782
723 729 731 735 739 742 745 745 754 755 758 763 764 768 773 776 780 781 783 783 783 784 784 784 785 785 786 786 785 784 781 778
724 730 737 740 742 745 747 749 755 758 760 764 766 769 773 776 780 782 783 785 786 786 785 785 785 785 784 783 782 779 778 776
730 733 738 743 748 752 756 758 758 763 765 767 771 773 776 778 780 781 783 783 784 785 784 783 783 782 781 780 778 778 776 773
731 737 744 748 752 756 758 762 764 767 768 771 774 777 779 780 781 782 781 781 781 781 781 781 781 781 781 780 778 776 773 771
731 738 741 749 753 757 762 765 767 768 770 773 776 778 779 780 780 780 779 779 779 780 780 780 779 778 777 776 774 772 770 767
730 734 741 751 757 760 764 768 770 771 772 775 776 778 779 779 779 779 778 777 778 778 778 777 776 774 773 772 770 767 765 762
729 726 743 756 762 764 766 769 772 774 775 776 777 778 778 777 777 778 777 776 776 776 776 775 774 771 770 768 765 763 760 756